Location: Brad
(46.1333°N, 22.7833°E)
Time: 04:20:08
(UTC+00:00)

CZ-4B R/B - Pass Details

Date: 03 February 2023
Orbit: 809 x 881 km, 99.0° (Epoch: 29 March)

Event Time Altitude Azimuth Distance (km) Brightness Sun altitude
Rises 17:47:23 0° 177° (S) 3,328 6.3 -22.9°
Reaches altitude 10° 17:49:45 10° 182° (S) 2,407 5.6 -23.3°
Maximum altitude 17:54:57 55° 259° (W) 997 3.8 -24.2°
Drops below altitude 10° 18:00:19 10° 337° (NNW) 2,467 5.9 -25.1°
Sets 18:02:46 0° 342° (NNW) 3,418 6.6 -25.6°
